Вернуться в каталог

FENGYUN 1C DEB

АктивенSSO
NORAD 32198·DEBRIS·🇨🇳 China

Запущен May 10, 1999 с Taiyuan Satellite Launch Center

Loading…

Ближайшие Пролёты (ближайшие 24 часа)

TLE

УстаревающийSource: Space-Track

Эпоха: Sep 8, 2026, 03:04 UTC

1 32198U 99025CUU 26251.12813970  .00002099  00000-0  11546-2 0  9994
2 32198  98.3579  23.7150 0093519 239.3842 119.8083 14.10440602607412

Отслеживайте FENGYUN 1C DEB в реальном времени с AllMySat

Download on the App Store